Tracking 31032 objects as of 14-Jul-2025
HD Live streaming from Space Station
objects crossing your sky now

STARLINK-31519

Track STARLINK-31519 now!
10-day predictions
STARLINK-31519 is classified as:


NORAD ID: 59546
Int'l Code: 2024-074N
Perigee: 489.5 km
Apogee: 490.9 km
Inclination: 43.0 °
Period: 94.3 minutes
Semi major axis: 6861 km
RCS: Unknown
Launch date: April 18, 2024
Source: United States (US)
Launch site: AIR FORCE EASTERN TEST RANGE (AFETR)
Your satellite tracking list
Your tracking list is empty




NASA's NSSDC Master Catalog

Two Line Element Set (TLE):
1 59546U 24074N   25194.86648118 -.00000992  00000-0 -26554-4 0  9997
2 59546  43.0012 251.9076 0001080 272.1749  87.8979 15.27573830 69499
Source of the keplerian elements: AFSPC